Regional Weather Roundup
Issued by NWS

Home | Current Version | Previous Version | Graphics & Text | Print | Product List | Glossary On
Versions: 1 2 3 4 5 6 7 8 9 10 11 12 13 14 15 16 17 18 19 20 21 22 23 24 25 26 27 28 29 30 31 32 33 34 35 36 37 38 39 40 41 42 43 44 45 46 47 48 49 50
000
ASUS43 KLOT 260858
RWRIL

ILLINOIS REGIONAL WEATHER ROUNDUP
NATIONAL WEATHER SERVICE CHICAGO/ROMEOVILLE IL
300 AM CST WED NOV 26 2014

NOTE: "FAIR" INDICATES FEW OR NO CLOUDS BELOW 12,000 FEET WITH NO
SIGNIFICANT WEATHER AND/OR OBSTRUCTIONS TO VISIBILITY.

* THESE STATIONS ARE NOT UNDER NWS QUALITY CONTROL. THEY ALSO MAY NOT
  REPORT WEATHER SUCH AS PRECIPITATION OR FOG.

ILZ001-002-007-009-015-016-024-261000-
NORTHWEST ILLINOIS

CITY           SKY/WX    TMP DP  RH WIND       PRES   REMARKS
MOLINE         PTCLDY    14  10  84 E8        30.10F WCI   3
$$

ILZ003-004-008-010-011-017-018-261000-
NORTH CENTRAL ILLINOIS

CITY           SKY/WX    TMP DP  RH WIND       PRES   REMARKS
ROCKFORD       NOT AVBL
$$

ILZ005-006-012>014-019>023-261000-
NORTHEAST ILLINOIS

CITY           SKY/WX    TMP DP  RH WIND       PRES   REMARKS
CHICAGO-OHARE  PTCLDY    19  15  84 NE3       30.17S
CHICAGO-MIDWAY CLOUDY    22  17  81 CALM      30.19R
AURORA         CLEAR     12   8  84 NE5       30.15F FOG     WCI   4
WAUKEGAN       NOT AVBL
DUPAGE AIRPORT CLEAR      9   7  92 NE3       30.15F FOG
WHEELING       CLOUDY    20  16  84 CALM      30.20F
NORTHERLY ISL    N/A     22  18  85 CALM        N/A
$$

LMZ740>746-261000-
SOUTHERN LAKE MICHIGAN

STATION/POSITION SKY/WX   TEMP    WIND        PRES    VSBY  WAVE
                          AIR SEA DIR/SP/G                  HT/PER
                          (F)     (DEG/KT/KT) (MB)    (MI)  (FT/S)
SOUTHERN BUOY              28 42  250/ 10/ 14 1022.9R         2/ 3
WAUKEGAN HARBOR            20     300/  2/  5   N/A
HARRISON CRIB              23     330/  3/  6   N/A
BURNHAM HARBOR             22     200/  2/  7   N/A
CALUMET HARBOR             22     260/  1/  5 1021.0R
MICHIGAN CITY              23     190/  6/  8   N/A
$$

ILZ025>027-034>036-040-047-049-050-058-095>099-261000-
WEST-CENTRAL ILLINOIS

CITY           SKY/WX    TMP DP  RH WIND       PRES   REMARKS
$$

ILZ028>032-037-038-041>044-048-051>054-059>061-261000-
CENTRAL ILLINOIS

CITY           SKY/WX    TMP DP  RH WIND       PRES   REMARKS
PEORIA         NOT AVBL
SPRINGFIELD    CLEAR     23  21  92 CALM      30.12S
TAYLORVILLE    NOT AVBL
$$

ILZ033-039-045-046-055>057-062-063-261000-
EAST-CENTRAL ILLINOIS

CITY           SKY/WX    TMP DP  RH WIND       PRES   REMARKS
CHAMPAIGN      CLEAR     20  17  88 E8        30.15S WCI  10
$$

ILZ079-100>102-261000-
SOUTHWEST ILLINOIS

CITY           SKY/WX    TMP DP  RH WIND       PRES   REMARKS
CAHOKIA*       PTCLDY    28  25  88 SE5       30.11F WCI  23
$$

ILZ064>066-069>071-074>076-080>082-084>086-088>090-092>094-261000-
SOUTH-CENTRAL ILLINOIS

CITY           SKY/WX    TMP DP  RH WIND       PRES   REMARKS
CARBONDALE     CLEAR     22  20  92 SE5       30.14F WCI  16
$$

ILZ067-068-072-073-078-083-087-091-261000-
SOUTHEAST ILLINOIS

CITY           SKY/WX    TMP DP  RH WIND       PRES   REMARKS
$$

ABBREVIATIONS USED IN REMARKS
   TC - TEMPERATURE IN CELSIUS
  WCI - WIND CHILL INDEX
   HX - HEAT INDEX
  VSB - VISIBILITY
$$



USA.gov is the U.S. government's official web portal to all federal, state and local government web resources and services.